Regional Weather Roundup
Issued by NWS

Home | Current Version | Previous Version | Text Only | Print | Product List | Glossary On
Versions: 1 2 3 4 5 6 7 8 9 10 11 12 13 14 15 16 17 18 19 20 21 22 23 24 25 26 27 28 29 30 31 32 33 34 35 36 37 38 39 40 41 42 43 44 45 46 47 48 49 50
000
ASUS43 KLSX 261607
RWRMO

WEATHER SUMMARY FOR MISSOURI
NATIONAL WEATHER SERVICE SPRINGFIELD MO
1100 AM CDT WED JUL 26 2017

NOTE: "FAIR" INDICATES FEW OR NO CLOUDS BELOW 12,000 FEET WITH NO
       SIGNIFICANT WEATHER AND/OR OBSTRUCTIONS TO VISIBILITY.
       CURRENT SKY AND/OR WEATHER CONDITIONS ARE NOT AVAILABLE FOR
       CHILLICOTHE AND FARMINGTON.

MOZ001>031-035>038-043-044-053-054-261700-
...NORTHERN AND WESTERN MISSOURI...

CITY           SKY/WX    TMP DP  RH WIND       PRES   REMARKS
KANSAS CTY INT LGT RAIN  77  75  93 W5        30.06S FOG
KANSAS C DTWN  CLOUDY    82  75  79 W7        30.04S
LEE`S SUMMIT   CLOUDY    81  76  84 SW7       30.07R
ST JOSEPH      LGT RAIN  76  76 100 SE6       30.01F FOG
CHILLICOTHE      N/A     80  76  87 SW3       30.05R
KIRKSVILLE     CLOUDY    82  74  76 SW6       30.05R

$$
MOZ066>068-077>081-088>096-101>105-261700-
...SOUTHWEST MISSOURI...

CITY           SKY/WX    TMP DP  RH WIND       PRES   REMARKS
SPRINGFIELD    CLOUDY    87  72  60 SW12      30.10S HX  93
JOPLIN         CLOUDY    92  74  55 SW12      30.07S HX 101
BRANSON        CLOUDY    88  72  58 SW6       30.13R HX  94

$$
MOZ032>034-039>042-045>050-055>058-069>072-261700-
...CENTRAL MISSOURI...

CITY           SKY/WX    TMP DP  RH WIND       PRES   REMARKS
COLUMBIA       CLOUDY    87  75  67 SW8       30.07R HX  96
JEFFERSON CITY CLOUDY    88  76  67 W6        30.05R HX  99
ROLLA          MOSUNNY   87  75  67 S7        30.10S HX  96
SEDALIA        PTSUNNY   87  77  72 SW8       30.07R HX  99
WHITEMAN AFB   CLOUDY    85  77  77 W10       30.05R HX  96
WARRENSBURG    CLOUDY    82  72  69 S8        30.05R
OSAGE BEACH    CLOUDY    88  73  61 W7        30.08S HX  95

$$
MOZ051-052-059>065-261700-
...EAST CENTRAL MISSOURI...

CITY           SKY/WX    TMP DP  RH WIND       PRES   REMARKS
ST LOUIS INTL  PTSUNNY   92  72  51 W8        30.05S HX  99
SPIRIT OF STL  SUNNY     90  75  61 SW9       30.04R HX 100
ST CHARLES     CLOUDY    87  75  67 S3        30.04S HX  96

$$
MOZ072>076-082>087-097>100-106>115-261700-
...SOUTH CENTRAL AND SOUTHEAST MISSOURI...

CITY           SKY/WX    TMP DP  RH WIND       PRES   REMARKS
CAPE GIRARDEAU SUNNY     89  78  70 S7        30.06S HX 103
FARMINGTON     MOSUNNY   92  73  53 W8        30.09R HX 100
POPLAR BLUFF   SUNNY     88  80  77 S8        30.07R HX 104
WEST PLAINS    SUNNY     89  71  55 W9        30.13R HX  95

$$




USA.gov is the U.S. government's official web portal to all federal, state and local government web resources and services.